RH
57 68 98 96 99 100 100 100 99 100 91 77 38 49 56 54 69 78 73 70 99 98 99 99 79 67 56 34 17 16 16 16 18 21 23 24 25 25 26 27 27 25 23
23 81 96 95 98 100 99 100 99 99 100 83 51 43 54 60 66 75 71 74 83 100 82 84 79 64 39 23 19 16 17 17 20 23 24 24 26 25 26 27 26 24 23
20 87 98 90 94 96 98 100 96 100 99 95 69 41 49 62 69 78 71 73 66 94 99 79 70 55 43 27 19 17 18 19 22 24 24 25 26 25 25 26 25 24 23
20 28 77 96 98 90 98 100 100 100 100 99 87 45 52 59 72 83 81 74 73 65 93 99 65 70 60 52 28 20 18 20 22 24 24 26 25 26 26 26 26 24 23
20 26 86 100 99 84 94 96 97 98 99 100 92 68 45 50 72 81 84 80 73 63 80 99 91 64 62 80 52 30 19 20 22 23 24 24 25 25 25 26 25 25 25
25 29 43 91 99 96 86 93 94 97 98 99 97 80 62 56 70 82 81 84 81 68 69 86 86 74 49 62 74 62 21 20 22 23 24 24 25 24 25 25 25 25 25
24 26 38 42 45 86 88 91 92 98 100 100 100 93 82 84 84 89 89 89 83 78 50 75 78 72 41 38 59 56 30 20 21 22 23 23 24 24 25 24 24 25 26
25 30 34 45 46 72 97 92 97 100 98 100 100 99 99 100 100 97 93 97 75 74 61 42 56 56 32 26 24 30 25 20 21 22 22 23 23 24 24 24 25 26 26
25 30 39 42 50 76 83 96 99 100 99 94 99 100 100 97 97 94 90 98 85 62 70 65 47 38 29 26 23 20 20 20 21 22 22 23 22 23 24 24 25 26 27
25 30 35 41 45 59 71 87 100 99 99 94 90 100 99 99 92 92 90 96 92 82 59 68 68 54 34 32 26 24 20 20 21 22 22 23 23 23 23 24 25 26 26
28 28 30 36 43 42 47 69 89 99 100 96 100 92 99 100 96 89 82 84 88 72 49 54 58 53 42 36 32 26 24 20 22 22 22 23 22 22 23 24 25 26 25
24 28 28 30 35 42 44 49 54 88 100 99 100 100 99 100 97 87 77 79 73 68 53 42 35 42 44 39 34 29 28 23 21 22 22 23 22 22 22 23 24 25 24
9 12 23 28 29 31 36 39 47 58 77 98 98 100 100 98 100 90 84 80 77 69 60 55 47 36 32 34 34 30 28 25 23 22 23 23 22 21 21 22 24 23 23
11 9 8 13 26 29 33 36 37 53 56 79 96 100 100 96 99 100 99 93 78 70 69 58 55 46 37 28 30 30 27 25 24 24 24 24 23 22 22 22 23 22 21
15 12 8 6 8 23 30 34 36 37 57 52 71 96 100 98 99 99 100 100 100 92 67 57 56 60 59 43 33 36 30 25 25 26 27 26 26 24 23 22 21 20 20
16 13 8 6 6 9 23 31 34 38 38 54 57 64 91 99 100 100 100 100 100 100 89 69 65 64 54 46 34 42 39 34 29 28 28 27 27 25 24 22 20 19 19
18 14 9 8 7 8 13 26 36 37 39 39 56 72 68 84 98 100 99 98 99 100 100 92 87 73 63 51 32 33 46 46 39 32 31 30 28 24 23 21 19 18 18
18 14 10 9 9 10 12 18 31 39 42 40 41 55 66 69 77 98 99 98 100 93 100 98 94 90 80 73 41 35 38 50 50 46 37 34 32 26 21 18 18 17 19
20 13 11 10 10 11 13 16 23 36 44 48 50 47 73 79 79 80 100 100 100 100 100 98 98 96 87 66 64 35 32 45 61 58 47 39 39 29 21 16 16 16 20
22 14 12 12 12 12 14 17 21 28 38 48 52 56 56 80 90 85 93 99 99 100 98 100 98 99 82 77 73 40 30 31 50 61 52 45 40 36 26 16 16 16 20
23 17 14 12 13 13 15 17 21 28 33 43 58 58 62 62 81 93 88 97 99 100 100 100 99 100 97 86 76 37 25 32 42 46 52 46 38 39 30 17 16 16 22
22 16 14 13 13 13 15 17 20 32 36 48 53 46 49 51 56 79 99 95 98 98 99 100 98 96 92 100 90 63 41 34 51 34 42 47 41 41 30 20 18 17 24
20 16 14 13 13 13 14 16 17 25 38 42 56 54 46 52 58 58 75 87 92 91 100 100 100 98 91 87 98 92 48 31 26 28 27 30 37 43 30 22 18 19 27
20 16 14 14 14 12 14 16 18 29 29 37 56 67 70 54 62 80 77 87 85 85 95 98 100 99 97 97 97 93 66 53 38 35 24 29 31 40 32 23 19 24 32
20 18 16 15 15 14 14 17 20 22 34 40 51 61 95 100 96 100 100 100 92 82 88 100 100 99 100 99 99 98 98 90 55 36 24 21 31 38 33 23 21 30 33
23 20 17 17 17 17 16 18 21 38 53 52 51 62 80 98 100 100 100 99 100 97 79 98 100 100 100 100 100 100 100 66 42 33 26 24 29 34 33 24 29 34 34
Wind_Speed
12 6 3 5 7 0 19 25 30 28 23 16 17 22 22 19 16 12 11 10 12 12 11 10 9 9 8 7 7 6 5 5 7 7 7 7 7 7 7 7 7 8 10
13 9 6 5 8 10 8 18 29 30 24 20 19 24 23 21 18 15 13 12 14 13 12 10 10 9 8 8 7 6 5 5 6 5 5 5 5 5 5 6 7 8 10
14 11 10 9 9 10 11 5 25 28 26 21 20 26 25 23 19 17 15 13 14 15 14 13 12 11 10 9 8 6 5 5 5 4 3 3 3 3 4 5 6 8 10
13 12 10 9 7 11 14 11 5 28 28 25 23 26 27 25 22 20 17 16 15 17 16 14 14 13 11 10 9 8 6 6 5 3 2 1 1 2 3 4 6 8 10
14 12 9 9 11 16 18 12 14 8 30 31 27 25 26 27 25 23 20 18 17 18 18 17 16 16 15 12 10 10 8 7 6 5 3 2 0 2 3 4 6 8 10
13 13 10 14 14 13 16 17 12 19 20 34 30 28 26 26 26 25 22 20 19 18 21 20 19 18 17 15 13 12 10 9 8 7 5 3 2 3 4 5 7 9 11
14 14 15 13 15 13 14 16 13 15 4 24 35 31 27 26 27 25 23 22 22 22 23 23 21 20 19 18 16 15 13 11 10 9 7 5 4 5 5 6 8 10 11
15 15 16 14 12 12 12 11 12 14 9 4 18 31 26 24 24 26 24 25 26 24 25 24 24 23 21 20 19 17 15 13 12 10 9 7 6 7 7 7 9 10 12
12 15 15 15 11 11 11 10 11 10 13 10 8 13 7 10 29 33 31 30 28 27 26 24 24 25 22 21 20 18 17 15 14 12 11 9 8 8 8 9 10 11 13
11 13 15 15 14 12 9 13 13 10 12 12 12 12 13 7 15 18 36 35 32 30 30 28 27 26 25 23 23 21 19 16 15 14 13 11 10 10 10 10 11 12 14
11 12 14 15 15 15 12 11 18 15 10 14 13 19 15 23 13 8 23 39 38 35 31 30 30 29 28 26 25 25 21 19 18 17 15 13 12 11 10 11 11 13 15
11 12 13 15 16 14 14 16 15 17 23 21 21 17 20 22 24 17 8 25 40 35 31 30 30 30 30 28 28 27 24 21 20 19 18 15 14 13 11 11 12 13 15
14 14 14 15 17 19 17 16 17 19 20 24 27 28 24 25 23 26 22 13 25 36 33 31 29 29 30 31 30 28 26 23 21 21 20 18 16 15 13 12 12 13 15
17 17 17 16 17 18 20 20 18 19 21 21 24 31 29 29 23 21 34 24 21 21 33 34 29 30 30 31 32 31 30 26 24 23 21 20 19 17 14 13 13 14 15
19 18 18 18 17 18 20 21 19 20 21 23 25 27 30 35 30 18 23 29 36 27 27 28 35 30 28 30 31 33 33 29 27 26 24 22 21 19 16 14 13 15 14
20 21 20 19 18 18 19 21 23 20 21 22 27 29 29 29 35 30 21 27 28 39 35 28 23 25 26 26 28 32 35 31 29 28 26 25 24 21 18 16 14 15 13
21 21 22 21 20 20 19 20 21 23 21 23 23 29 31 30 29 29 31 30 29 28 44 43 40 34 26 24 26 27 32 35 33 30 29 27 26 23 20 17 16 15 13
21 23 22 21 20 20 20 21 22 22 23 23 25 25 29 29 33 26 23 25 37 29 29 37 41 38 35 33 27 25 27 33 37 33 31 29 27 24 22 19 17 15 13
19 21 22 21 22 21 21 20 22 23 23 22 23 26 27 29 29 33 28 22 30 34 34 30 37 37 38 36 33 29 27 29 34 36 33 33 29 27 24 20 18 15 14
20 21 21 22 21 21 21 22 22 24 25 26 24 25 27 27 29 32 36 23 14 30 34 35 32 41 39 37 34 32 30 29 32 36 37 34 30 29 26 22 20 16 16
20 21 21 21 22 22 21 21 23 24 27 28 28 26 26 28 28 31 38 36 31 22 33 40 33 42 47 42 37 31 31 30 31 31 37 35 34 32 29 26 22 18 16
21 22 23 23 22 22 21 21 22 25 27 30 33 30 28 29 31 30 33 34 39 27 25 44 34 37 42 52 44 38 36 35 31 31 34 35 33 31 30 26 23 20 17
21 22 23 24 25 24 22 22 23 25 27 29 31 32 30 27 29 31 30 33 41 44 36 38 47 37 36 42 47 44 41 37 36 28 33 32 35 34 31 28 26 22 19
22 22 23 23 25 24 23 23 24 26 27 28 28 28 29 29 27 28 28 31 35 51 39 33 49 47 34 33 44 45 39 34 34 27 23 35 36 35 32 30 28 25 19
23 23 24 24 25 25 23 23 24 26 28 28 28 26 24 26 26 23 24 30 32 41 50 38 32 50 48 36 39 51 48 37 38 33 31 33 38 38 35 32 29 27 20
24 23 24 25 25 27 24 23 23 25 28 29 28 27 25 26 24 24 24 28 33 34 44 49 33 31 49 48 41 37 42 42 40 38 40 38 36 42 33 35 32 28 22
Wind_Direction
322 312 324 280 343 198 223 231 202 221 238 229 213 207 217 223 222 231 251 251 190 188 183 182 173 171 168 162 160 151 144 125 109 106 96 86 76 66 59 55 46 34 29
319 310 281 281 297 350 6 230 221 204 225 229 218 207 217 221 224 230 241 242 211 192 191 187 183 185 182 179 179 167 154 135 120 114 104 86 74 61 52 45 35 24 21
331 312 300 317 297 311 4 320 225 207 214 226 220 208 216 220 225 230 234 237 227 197 193 194 194 195 194 193 192 182 172 151 140 131 113 94 75 52 35 31 23 14 14
332 318 314 300 287 285 320 10 205 213 212 218 219 211 216 218 223 230 236 239 238 222 198 201 199 202 198 198 202 198 189 173 166 169 157 134 59 26 11 12 8 8 5
322 333 306 298 293 272 292 334 354 308 215 213 213 213 220 220 221 228 233 240 243 242 208 204 206 206 201 204 206 215 203 190 190 197 203 215 293 329 341 352 355 357 357
315 317 310 291 287 278 286 309 329 351 246 212 207 209 217 220 222 227 233 239 245 251 220 210 214 214 211 203 209 219 214 204 203 212 221 232 259 292 315 337 341 349 352
309 311 309 304 308 285 287 291 308 315 226 206 207 200 205 214 220 226 233 240 248 247 237 220 218 218 219 214 209 218 222 212 213 220 227 238 258 281 304 321 332 342 344
306 315 307 315 329 304 265 266 292 305 315 153 199 193 187 197 210 225 231 238 243 244 241 231 225 225 224 223 222 221 223 219 219 223 231 239 253 276 294 308 326 336 338
308 306 310 311 316 314 283 260 269 289 293 300 250 201 191 202 205 218 224 228 236 238 238 237 237 234 233 229 228 230 229 223 223 227 233 241 252 269 284 304 320 330 332
315 308 309 313 312 305 303 264 249 269 276 292 301 237 249 282 199 214 220 226 232 239 234 236 240 239 237 232 230 231 229 227 227 230 234 241 250 264 281 300 314 323 328
325 312 309 314 317 311 302 293 263 240 251 260 272 277 319 254 243 239 221 222 227 234 237 239 243 242 236 233 232 232 233 226 227 232 237 239 247 259 276 293 307 317 324
342 330 317 312 313 311 304 287 280 268 253 245 259 266 271 297 253 251 262 228 229 233 241 245 247 243 236 235 234 232 232 229 227 232 237 239 245 257 270 285 300 309 318
346 342 330 320 312 310 309 301 288 283 270 262 248 261 267 267 277 244 262 281 235 234 235 239 248 249 244 241 236 232 231 229 226 230 234 239 245 254 266 279 290 302 311
343 336 331 326 318 311 309 305 297 280 279 273 261 254 264 269 266 281 244 257 260 256 245 240 246 252 250 245 243 238 234 230 226 229 233 237 244 252 261 271 281 294 306
334 334 327 322 318 313 306 305 304 295 278 275 272 266 255 252 258 271 268 263 253 259 265 256 246 251 258 254 250 244 239 234 228 229 232 236 242 249 255 264 277 287 302
329 330 329 323 316 311 310 306 303 301 294 280 271 273 264 258 252 251 272 273 280 252 249 254 259 267 265 264 254 246 242 238 233 229 231 235 240 245 250 258 269 279 295
325 326 325 325 321 314 309 308 306 304 299 289 278 271 269 264 262 245 247 258 259 275 250 254 258 257 263 268 258 248 238 234 234 229 229 231 238 242 247 252 260 271 287
317 320 323 323 321 317 311 308 308 307 302 295 290 281 270 268 263 261 256 257 258 256 272 265 258 257 259 261 261 253 243 233 230 229 228 230 234 238 242 245 253 264 276
310 312 316 318 319 318 316 311 306 306 304 298 292 288 280 268 268 259 262 265 264 254 260 267 260 254 253 251 254 253 242 231 229 228 227 228 229 234 237 239 247 256 265
306 308 310 314 315 315 316 312 307 303 301 299 292 288 288 279 273 266 266 265 276 265 255 257 260 250 250 251 248 245 239 233 224 222 224 227 227 231 233 234 239 246 255
301 303 305 307 310 312 316 314 310 305 301 300 297 290 287 288 277 271 264 267 269 279 260 254 252 252 245 247 243 234 235 234 228 223 222 224 224 225 227 229 232 236 246
296 299 301 303 304 307 311 310 308 305 302 299 300 298 293 289 289 279 275 270 263 272 268 254 247 253 256 248 242 238 237 226 220 221 219 222 225 225 227 226 228 230 235
291 294 297 300 302 304 306 305 304 301 300 300 300 302 300 294 290 288 281 270 262 253 266 249 251 252 255 253 245 240 235 230 225 220 215 217 218 217 220 221 222 224 225
287 291 294 297 297 300 303 303 302 299 299 299 302 303 303 297 292 297 293 281 267 254 257 246 250 253 256 258 246 236 230 232 232 229 220 215 214 213 213 214 217 219 219
281 287 291 294 296 298 301 301 301 300 300 299 299 301 304 301 297 300 298 294 285 261 252 257 260 256 260 250 244 232 235 223 226 224 222 219 210 207 206 209 214 214 214
278 284 288 292 295 297 299 298 297 297 297 299 298 295 290 287 286 290 286 284 283 276 257 259 275 269 253 253 247 245 236 213 216 221 218 210 210 201 196 203 207 210 211